DW4604 Weather Reports


time (UTC)temp
C
wind
direction
speed
KPH
gust
KPH
rain 1hr
cm
rain 24hr
cm
rain mn
cm
humidity
%
barometer
mb
20260903111448 22 0 0.0 0.0 0.00 0.00 0.00 62 1017.3
20260903110950 22 0 0.0 0.0 0.00 0.00 0.00 66 1017.4
20260903110449 21 0 0.0 0.0 0.00 0.00 0.00 69 1017.4
20260903105949 22 0 0.0 0.0 0.00 0.00 0.00 65 1017.5
20260903105450 22 0 0.0 0.0 0.00 0.00 0.00 66 1017.4
20260903104949 22 0 0.0 0.0 0.00 0.00 0.00 63 1017.6
20260903103949 23 0 0.0 0.0 0.00 0.00 0.00 68 1017.6
20260903103449 22 0 0.0 0.0 0.00 0.00 0.00 64 1017.6
20260903102949 23 0 0.0 0.0 0.00 0.00 0.00 65 1017.7
20260903102449 22 0 0.0 0.0 0.00 0.00 0.00 66 1017.7
20260903101948 22 0 0.0 0.0 0.00 0.00 0.00 64 1017.7
20260903100949 22 0 0.0 0.0 0.00 0.00 0.00 61 1017.8
20260903100449 23 0 0.0 0.0 0.00 0.00 0.00 62 1017.9
20260903095950 22 0 0.0 0.0 0.00 0.00 0.00 65 1018.0
20260903095448 22 0 0.0 0.0 0.00 0.00 0.00 65 1018.0
20260903094948 22 0 0.0 0.0 0.00 0.00 0.00 63 1018.0
20260903094448 22 0 0.0 0.0 0.00 0.00 0.00 66 1018.0
20260903093949 22 0 0.0 0.0 0.00 0.00 0.00 65 1018.1
20260903092949 22 0 0.0 0.0 0.00 0.00 0.00 65 1018.2
20260903092450 21 0 0.0 0.0 0.00 0.00 0.00 63 1018.3
20260903091449 21 0 0.0 0.0 0.00 0.00 0.00 64 1018.4
20260903090949 21 0 0.0 0.0 0.00 0.00 0.00 64 1018.4
20260903090449 21 0 0.0 0.0 0.00 0.00 0.00 64 1018.5
20260903085449 21 0 0.0 0.0 0.00 0.00 0.00 65 1018.6
20260903084948 21 0 0.0 0.0 0.00 0.00 0.00 65 1018.5
20260903084451 21 0 0.0 0.0 0.00 0.00 0.00 67 1018.5
20260903083949 20 0 0.0 0.0 0.00 0.00 0.00 69 1018.6
20260903083449 20 0 0.0 0.0 0.00 0.00 0.00 68 1018.6
20260903082949 20 0 0.0 0.0 0.00 0.00 0.00 68 1018.7
20260903082449 20 0 0.0 0.0 0.00 0.00 0.00 71 1018.7
20260903081949 20 0 0.0 0.0 0.00 0.00 0.00 71 1018.5
20260903081449 19 0 0.0 0.0 0.00 0.00 0.00 73 1018.6
20260903080949 19 0 0.0 0.0 0.00 0.00 0.00 74 1018.7
20260903080449 20 0 0.0 0.0 0.00 0.00 0.00 72 1018.7
20260903075949 19 0 0.0 0.0 0.00 0.00 0.00 73 1018.7
20260903075450 19 0 0.0 0.0 0.00 0.00 0.00 73 1018.7
20260903074451 19 0 0.0 0.0 0.00 0.00 0.00 76 1018.7
20260903073949 18 0 0.0 0.0 0.00 0.00 0.00 77 1018.5
20260903073449 18 0 0.0 0.0 0.00 0.00 0.00 79 1018.5
20260903072451 18 0 0.0 0.0 0.00 0.00 0.00 80 1018.6
20260903071949 18 0 0.0 0.0 0.00 0.00 0.00 81 1018.6
20260903071449 17 0 0.0 0.0 0.00 0.00 0.00 81 1018.5
20260903070949 17 0 0.0 0.0 0.00 0.00 0.00 82 1018.5
20260903065950 17 0 0.0 0.0 0.00 0.00 0.00 83 1018.4
20260903065450 17 0 0.0 0.0 0.00 0.00 0.00 84 1018.4
20260903064949 16 0 0.0 0.0 0.00 0.00 0.00 85 1018.4
20260903064449 16 0 0.0 0.0 0.00 0.00 0.00 86 1018.5
20260903063949 16 0 0.0 0.0 0.00 0.00 0.00 87 1018.5
20260903063449 16 0 0.0 0.0 0.00 0.00 0.00 89 1018.5
20260903062951 15 0 0.0 0.0 0.00 0.00 0.00 90 1018.5
20260903062449 15 0 0.0 0.0 0.00 0.00 0.00 92 1018.5
20260903061949 15 0 0.0 0.0 0.00 0.00 0.00 93 1018.5
20260903061450 15 0 0.0 0.0 0.00 0.00 0.00 93 1018.6
20260903060950 14 0 0.0 0.0 0.00 0.00 0.00 94 1018.6
20260903060449 14 0 0.0 0.0 0.00 0.00 0.00 94 1018.7
20260903055949 13 0 0.0 0.0 0.00 0.00 0.00 94 1018.6
20260903055450 13 0 0.0 0.0 0.00 0.00 0.00 94 1018.5
20260903054950 13 0 0.0 0.0 0.00 0.00 0.00 94 1018.6
20260903054450 12 0 0.0 0.0 0.00 0.00 0.00 94 1018.6
20260903053950 12 0 0.0 0.0 0.00 0.00 0.00 94 1018.6
20260903053451 12 0 0.0 0.0 0.00 0.00 0.00 94 1018.5
20260903052950 12 0 0.0 0.0 0.00 0.00 0.00 93 1018.5
20260903052450 12 0 0.0 0.0 0.00 0.00 0.00 93 1018.5
20260903051950 12 0 0.0 0.0 0.00 0.00 0.00 94 1018.3
20260903050450 12 0 0.0 0.0 0.00 0.00 0.00 94 1018.1
20260903045951 12 0 0.0 0.0 0.00 0.00 0.00 93 1018.1
20260903045450 12 0 0.0 0.0 0.00 0.00 0.00 93 1018.0
20260903044950 12 0 0.0 0.0 0.00 0.00 0.00 93 1017.9
20260903044451 12 0 0.0 0.0 0.00 0.00 0.00 93 1017.9
20260903043950 12 0 0.0 0.0 0.00 0.00 0.00 93 1017.9
20260903043450 12 0 0.0 0.0 0.00 0.00 0.00 93 1018.0
20260903042951 12 0 0.0 0.0 0.00 0.00 0.00 93 1018.0
20260903042450 12 0 0.0 0.0 0.00 0.00 0.00 93 1017.9
20260903041450 12 0 0.0 0.0 0.00 0.00 0.00 93 1017.9
20260903040950 12 0 0.0 0.0 0.00 0.00 0.00 93 1018.0
20260903035950 12 0 0.0 0.0 0.00 0.00 0.00 92 1017.9
20260903034449 12 0 0.0 0.0 0.00 0.00 0.00 92 1017.9
20260903033949 13 0 0.0 0.0 0.00 0.00 0.00 93 1017.8
20260903033450 13 0 0.0 0.0 0.00 0.00 0.00 93 1017.8
20260903032950 13 0 0.0 0.0 0.00 0.00 0.00 93 1017.9
20260903032450 13 0 0.0 0.0 0.00 0.00 0.00 92 1018.0
20260903031950 13 0 0.0 0.0 0.00 0.00 0.00 92 1018.0
20260903031450 13 0 0.0 0.0 0.00 0.00 0.00 93 1018.0
20260903030450 13 0 0.0 0.0 0.00 0.00 0.00 93 1018.1
20260903025951 13 0 0.0 0.0 0.00 0.00 0.00 93 1018.2
20260903025451 13 0 0.0 0.0 0.00 0.00 0.00 93 1018.0
20260903024450 13 0 0.0 0.0 0.00 0.00 0.00 93 1018.0
20260903023450 13 0 0.0 0.0 0.00 0.00 0.00 93 1018.1
20260903022950 13 0 0.0 0.0 0.00 0.00 0.00 93 1018.1
20260903022450 13 0 0.0 0.0 0.00 0.00 0.00 93 1018.0
20260903021951 13 0 0.0 0.0 0.00 0.00 0.00 94 1018.1
20260903021450 13 0 0.0 0.0 0.00 0.00 0.00 94 1018.2
20260903020450 13 0 0.0 0.0 0.00 0.00 0.00 94 1018.4
20260903015450 13 0 0.0 0.0 0.00 0.00 0.00 94 1018.6
20260903014952 12 0 0.0 0.0 0.00 0.00 0.00 94 1018.2
20260903014451 12 0 0.0 0.0 0.00 0.00 0.00 94 1018.0
20260903013951 12 0 0.0 0.0 0.00 0.00 0.00 94 1018.0
20260903013450 13 0 0.0 0.0 0.00 0.00 0.00 94 1017.9
20260903012950 13 0 0.0 0.0 0.00 0.00 0.00 94 1017.9
20260903012451 13 0 0.0 0.0 0.00 0.00 0.00 94 1017.9
20260903011951 13 0 0.0 0.0 0.00 0.00 0.00 94 1017.9
20260903011451 13 0 0.0 0.0 0.00 0.00 0.00 94 1018.0
20260903010451 13 0 0.0 0.0 0.00 0.00 0.00 94 1017.9
20260903005951 13 0 0.0 0.0 0.00 0.00 0.00 94 1017.9
20260903005450 13 0 0.0 0.0 0.00 0.00 0.00 94 1017.9
20260903004951 13 0 0.0 0.0 0.00 0.00 0.00 94 1017.9
20260903004451 13 0 0.0 0.0 0.00 0.00 0.00 94 1017.9
20260903002951 12 0 0.0 0.0 0.00 0.00 0.00 94 1018.1
20260903002452 12 0 0.0 0.0 0.00 0.00 0.00 94 1018.2
20260903001951 13 0 0.0 0.0 0.00 0.00 0.00 94 1018.2
20260903001450 12 0 0.0 0.0 0.00 0.00 0.00 94 1018.2
20260903000952 12 0 0.0 0.0 0.00 0.00 0.00 93 1018.2
20260903000451 12 0 0.0 0.0 0.00 0.00 0.00 93 1018.3
20260902235951 12 0 0.0 0.0 0.00 0.00 0.00 93 1018.3
20260902235451 12 0 0.0 0.0 0.00 0.00 0.00 93 1018.3
20260902234951 12 0 0.0 0.0 0.00 0.00 0.00 94 1018.3
20260902234451 12 0 0.0 0.0 0.00 0.00 0.00 93 1018.2
20260902233951 13 0 0.0 0.0 0.00 0.00 0.00 94 1018.2
20260902233451 12 0 0.0 0.0 0.00 0.00 0.00 94 1018.3
20260902232951 12 0 0.0 0.0 0.00 0.00 0.00 93 1018.3
20260902232452 12 0 0.0 0.0 0.00 0.00 0.00 93 1018.4
20260902231951 12 0 0.0 0.0 0.00 0.00 0.00 93 1018.4
20260902231451 12 0 0.0 0.0 0.00 0.00 0.00 93 1018.4
20260902230951 12 0 0.0 0.0 0.00 0.00 0.00 93 1018.4
20260902230451 12 0 0.0 0.0 0.00 0.00 0.00 93 1018.4
20260902225951 12 0 0.0 0.0 0.00 0.00 0.00 93 1018.4
20260902225450 12 0 0.0 0.0 0.00 0.00 0.00 93 1018.4
20260902224951 12 0 0.0 0.0 0.00 0.00 0.00 93 1018.4
20260902224450 12 0 0.0 0.0 0.00 0.00 0.00 93 1018.5
20260902223952 12 0 0.0 0.0 0.00 0.00 0.00 93 1018.5
20260902222950 12 0 0.0 0.0 0.00 0.00 0.00 93 1018.5
20260902222451 12 0 0.0 0.0 0.00 0.00 0.00 93 1018.5
20260902221451 12 0 0.0 0.0 0.00 0.00 0.00 92 1018.5
20260902220951 12 0 0.0 0.0 0.00 0.00 0.00 92 1018.5
20260902220451 12 0 0.0 0.0 0.00 0.00 0.00 93 1018.5
20260902215953 12 0 0.0 0.0 0.00 0.00 0.00 92 1018.4
20260902215450 13 0 0.0 0.0 0.00 0.00 0.00 92 1018.4
20260902214951 13 0 0.0 0.0 0.00 0.00 0.00 92 1018.4
20260902214452 13 0 0.0 0.0 0.00 0.00 0.00 92 1018.3
20260902213951 13 0 0.0 0.0 0.00 0.00 0.00 92 1018.3
20260902213452 13 0 0.0 0.0 0.00 0.00 0.00 92 1018.3
20260902212951 13 0 0.0 0.0 0.00 0.00 0.00 92 1018.3
20260902212451 13 0 0.0 0.0 0.00 0.00 0.00 92 1018.3
20260902211952 13 0 0.0 0.0 0.00 0.00 0.00 92 1018.3
20260902211451 13 0 0.0 0.0 0.00 0.00 0.00 92 1018.3
20260902210452 13 0 0.0 0.0 0.00 0.00 0.00 92 1018.3
20260902205952 13 0 0.0 0.0 0.00 0.00 0.00 92 1018.3
20260902205451 13 0 0.0 0.0 0.00 0.00 0.00 91 1018.3
20260902204951 13 0 0.0 0.0 0.00 0.00 0.00 91 1018.3
20260902203951 13 0 0.0 0.0 0.00 0.00 0.00 91 1018.3
20260902202452 13 0 0.0 0.0 0.00 0.00 0.00 91 1018.3
20260902201451 13 0 0.0 0.0 0.00 0.00 0.00 90 1018.3
20260902195951 14 0 0.0 0.0 0.00 0.00 0.00 90 1018.3
20260902195451 14 0 0.0 0.0 0.00 0.00 0.00 90 1018.3
20260902194451 14 0 0.0 0.0 0.00 0.00 0.00 90 1018.3
20260902193451 14 0 0.0 0.0 0.00 0.00 0.00 89 1018.4
20260902192951 14 0 0.0 0.0 0.00 0.00 0.00 89 1018.4
20260902192452 15 0 0.0 0.0 0.00 0.00 0.00 89 1018.4
20260902191951 15 0 0.0 0.0 0.00 0.00 0.00 89 1018.4
20260902191452 15 0 0.0 0.0 0.00 0.00 0.00 88 1018.5
20260902190952 15 0 0.0 0.0 0.00 0.00 0.00 88 1018.5
20260902190452 15 0 0.0 0.0 0.00 0.00 0.00 88 1018.4
20260902185951 15 0 0.0 0.0 0.00 0.00 0.00 88 1018.4
20260902185451 15 0 0.0 0.0 0.00 0.00 0.00 88 1018.3
20260902184952 15 0 0.0 0.0 0.00 0.00 0.00 87 1018.4
20260902184452 15 0 0.0 0.0 0.00 0.00 0.00 87 1018.4
20260902183951 15 0 0.0 0.0 0.00 0.00 0.00 88 1018.4
20260902183452 15 0 0.0 0.0 0.00 0.00 0.00 88 1018.4
20260902182952 15 0 0.0 0.0 0.00 0.00 0.00 87 1018.4
20260902182452 15 0 0.0 0.0 0.00 0.00 0.00 87 1018.4
20260902181951 16 0 0.0 0.0 0.00 0.00 0.00 87 1018.4
20260902181451 16 0 0.0 0.0 0.00 0.00 0.00 86 1018.3
20260902180451 16 0 0.0 0.0 0.00 0.00 0.00 85 1018.3
20260902175952 16 0 0.0 0.0 0.00 0.00 0.00 85 1018.2
20260902175452 16 0 0.0 0.0 0.00 0.00 0.00 84 1018.2
20260902174452 17 0 0.0 0.0 0.00 0.00 0.00 83 1018.2
20260902173952 17 0 0.0 0.0 0.00 0.00 0.00 82 1018.2
20260902173452 17 0 0.0 0.0 0.00 0.00 0.00 82 1018.1
20260902172952 17 0 0.0 0.0 0.00 0.00 0.00 81 1018.1
20260902171952 18 0 0.0 0.0 0.00 0.00 0.00 80 1018.1
20260902171452 18 0 0.0 0.0 0.00 0.00 0.00 79 1018.0
20260902170952 18 0 0.0 0.0 0.00 0.00 0.00 79 1018.0
20260902170452 18 0 0.0 0.0 0.00 0.00 0.00 78 1018.0
20260902165953 18 0 0.0 0.0 0.00 0.00 0.00 78 1018.0
20260902165452 18 0 0.0 0.0 0.00 0.00 0.00 78 1018.0
20260902164952 18 0 0.0 0.0 0.00 0.00 0.00 77 1018.0
20260902164452 18 0 0.0 0.0 0.00 0.00 0.00 77 1017.9
20260902163952 19 0 0.0 0.0 0.00 0.00 0.00 77 1017.9
20260902163452 19 0 0.0 0.0 0.00 0.00 0.00 77 1018.1
20260902162952 19 0 0.0 0.0 0.00 0.00 0.00 76 1018.0
20260902161952 20 0 0.0 0.0 0.00 0.00 0.00 75 1018.0
20260902161453 20 0 0.0 0.0 0.00 0.00 0.00 75 1018.0
20260902160953 20 0 0.0 0.0 0.00 0.00 0.00 74 1018.0
20260902160452 20 0 0.0 0.0 0.00 0.00 0.00 74 1018.1
20260902155952 20 0 0.0 0.0 0.00 0.00 0.00 73 1018.1
20260902155452 21 0 0.0 0.0 0.00 0.00 0.00 73 1018.0
20260902154452 21 0 0.0 0.0 0.00 0.00 0.00 69 1018.0
20260902153453 21 0 0.0 0.0 0.00 0.00 0.00 66 1018.0
20260902152954 22 0 0.0 0.0 0.00 0.00 0.00 66 1018.1
20260902152453 22 0 0.0 0.0 0.00 0.00 0.00 63 1018.1
20260902151953 22 0 0.0 0.0 0.00 0.00 0.00 66 1018.2
20260902151459 22 0 0.0 0.0 0.00 0.00 0.00 64 1018.2
20260902150952 22 0 0.0 0.0 0.00 0.00 0.00 65 1018.1
20260902150453 22 0 0.0 0.0 0.00 0.00 0.00 64 1018.2
20260902145953 22 0 0.0 0.0 0.00 0.00 0.00 63 1018.2
20260902145453 22 0 0.0 0.0 0.00 0.00 0.00 63 1018.2
20260902144953 22 0 0.0 0.0 0.00 0.00 0.00 64 1018.3
20260902144453 22 0 0.0 0.0 0.00 0.00 0.00 63 1018.4
20260902143952 22 0 0.0 0.0 0.00 0.00 0.00 64 1018.3
20260902142952 22 0 0.0 0.0 0.00 0.00 0.00 62 1018.3
20260902141952 23 0 0.0 0.0 0.00 0.00 0.00 62 1018.3
20260902141452 23 0 0.0 0.0 0.00 0.00 0.00 61 1018.3
20260902140952 23 0 0.0 0.0 0.00 0.00 0.00 61 1018.4
20260902140453 23 0 0.0 0.0 0.00 0.00 0.00 61 1018.4
20260902135953 22 0 0.0 0.0 0.00 0.00 0.00 62 1018.4
20260902135453 23 0 0.0 0.0 0.00 0.00 0.00 62 1018.5
20260902134952 23 0 0.0 0.0 0.00 0.00 0.00 62 1018.5
20260902134453 24 0 0.0 0.0 0.00 0.00 0.00 58 1018.6
20260902133953 24 0 0.0 0.0 0.00 0.00 0.00 60 1018.5
20260902133453 24 0 0.0 0.0 0.00 0.00 0.00 61 1018.5
20260902132953 24 0 0.0 0.0 0.00 0.00 0.00 60 1018.5
20260902132453 23 0 0.0 0.0 0.00 0.00 0.00 61 1018.6
20260902131953 23 0 0.0 0.0 0.00 0.00 0.00 64 1018.6
20260902131453 24 0 0.0 0.0 0.00 0.00 0.00 59 1018.6
20260902130953 24 0 0.0 0.0 0.00 0.00 0.00 60 1018.7
20260902130453 25 0 0.0 0.0 0.00 0.00 0.00 60 1018.6
20260902125452 23 0 0.0 0.0 0.00 0.00 0.00 62 1018.8
20260902124952 23 0 0.0 0.0 0.00 0.00 0.00 63 1018.7
20260902124453 24 0 0.0 0.0 0.00 0.00 0.00 62 1018.8
20260902122952 22 0 0.0 0.0 0.00 0.00 0.00 67 1019.0
20260902121953 24 0 0.0 0.0 0.00 0.00 0.00 63 1019.0
20260902121453 24 0 0.0 0.0 0.00 0.00 0.00 64 1019.0
20260902120954 24 0 0.0 0.0 0.00 0.00 0.00 59 1019.0
20260902120453 24 0 0.0 0.0 0.00 0.00 0.00 63 1019.0
20260902114953 24 0 0.0 0.0 0.00 0.00 0.00 62 1019.1
20260902114453 23 0 0.0 0.0 0.00 0.00 0.00 62 1019.2
20260902113953 23 0 0.0 0.0 0.00 0.00 0.00 64 1019.2
20260902113453 22 0 0.0 0.0 0.00 0.00 0.00 69 1019.2
20260902112954 22 0 0.0 0.0 0.00 0.00 0.00 65 1019.2
20260902112453 23 0 0.0 0.0 0.00 0.00 0.00 64 1019.2